Wind_Speed
18 18 17 18 19 20 21 22 23 23 23 23 22 22 20 19 18 16 14 12 10 8 7 5 4 2 0 2 3 5 6 8 9 10 12 13 13 14 15 15 15 15 15 15 15 15 14 14 15 15 16 16 17 18 19 20 21 21 22 22 23 23 23 24 24 24 25 25 26
18 18 19 20 21 21 22 24 25 25 24 23 22 21 20 19 17 15 13 11 10 8 7 5 3 1 1 2 4 5 7 8 10 11 12 13 14 15 15 15 16 15 15 15 15 14 14 15 15 15 16 17 18 19 19 20 21 21 22 22 23 23 23 24 24 25 25 25 26
19 19 20 22 23 24 25 26 27 26 25 24 22 21 20 18 16 14 12 11 9 8 6 4 3 1 1 3 4 6 7 9 10 11 12 13 14 15 15 16 16 16 15 15 15 15 14 15 15 16 16 17 18 19 20 20 21 21 22 22 23 23 24 24 25 25 26 26 27
20 21 22 23 24 25 26 27 27 26 25 24 23 21 19 17 15 14 12 11 9 7 6 4 2 1 2 3 5 7 8 9 11 12 13 14 14 15 15 16 16 15 15 15 15 15 15 15 15 16 17 18 18 19 20 20 21 21 22 22 23 24 24 25 25 26 26 27 27
21 22 22 24 25 26 27 27 27 26 25 24 22 21 19 17 15 13 12 10 8 7 5 3 2 2 3 4 6 7 9 10 11 12 13 14 15 15 15 16 15 15 15 15 15 15 15 15 16 16 17 18 19 19 20 20 21 22 22 23 23 24 24 25 26 26 27 27 28
22 23 24 26 27 27 27 27 26 25 24 23 22 20 18 16 15 13 11 9 7 6 4 3 2 2 4 5 6 8 9 11 12 13 14 15 15 15 15 15 15 15 15 15 15 15 15 16 16 17 18 18 19 20 20 21 21 22 22 23 24 24 25 26 26 27 27 28 28
23 24 26 28 29 28 28 27 26 25 23 22 21 19 17 15 14 12 10 8 6 5 4 3 2 3 5 6 7 9 10 11 12 13 14 15 15 15 15 15 15 15 15 15 15 15 16 16 17 17 18 19 19 20 20 21 22 22 23 23 24 25 26 26 27 27 28 28 29
24 26 28 29 29 29 28 27 25 24 23 21 19 17 16 14 13 11 9 7 6 4 3 3 3 4 5 7 8 9 11 12 13 14 15 15 15 15 15 15 15 15 15 15 15 15 16 17 17 18 18 19 20 20 21 21 22 23 23 24 25 25 26 27 27 28 28 29 29
27 29 30 30 29 28 27 26 24 23 22 20 18 16 15 13 11 10 8 6 5 4 4 4 4 5 6 7 9 10 11 12 13 14 15 15 15 15 15 15 15 15 15 15 15 16 16 17 18 18 19 19 20 21 21 22 23 23 24 24 25 26 27 27 28 29 29 29 30
29 31 31 31 30 28 27 25 23 22 20 19 18 16 14 12 10 9 7 6 5 4 4 4 5 6 7 8 9 10 11 12 13 14 15 15 15 15 15 15 15 15 15 15 16 16 17 17 18 19 19 20 20 21 22 22 23 24 24 25 26 26 27 28 28 29 29 30 30
31 32 32 31 30 28 27 25 23 21 20 18 17 15 14 12 10 8 7 6 5 5 5 5 6 7 8 9 10 11 12 13 14 14 15 15 15 15 15 15 15 15 15 16 16 16 17 17 18 19 19 20 21 21 22 23 24 24 25 26 26 27 27 28 29 29 30 30 30
32 32 32 30 29 28 26 25 23 21 19 17 16 14 12 11 9 8 7 6 5 5 5 6 6 7 8 9 10 11 12 13 14 14 15 15 15 15 15 15 15 15 15 16 16 17 17 18 18 19 20 21 21 22 23 24 24 25 26 26 27 28 28 29 29 29 30 30 30
33 33 32 30 29 27 26 25 23 21 19 17 15 13 12 10 9 8 7 6 6 6 6 6 7 8 9 10 11 11 12 13 14 14 14 15 15 15 15 15 15 15 16 16 17 17 18 18 18 19 20 21 22 23 24 24 25 26 26 27 28 28 29 29 29 30 30 30 31
33 32 31 30 29 27 26 24 22 20 18 16 15 13 12 10 9 8 7 7 7 7 7 7 8 8 9 10 11 12 12 13 14 14 15 15 15 15 15 15 15 16 16 17 17 17 18 18 19 20 20 21 22 23 24 25 26 26 27 28 28 29 29 29 30 30 30 31 31
33 32 31 30 28 27 25 24 22 20 18 16 15 13 12 10 10 9 8 8 7 7 7 8 8 9 10 10 11 12 12 13 14 14 15 15 15 15 15 15 15 16 16 17 17 18 18 19 20 21 21 22 23 24 25 25 26 27 27 28 29 29 30 30 30 31 31 31 31
33 32 30 29 28 26 25 23 21 20 18 16 15 13 12 11 10 9 9 8 8 8 8 8 9 10 10 11 12 12 13 13 14 14 15 15 15 15 15 15 15 16 16 17 18 19 19 20 21 21 22 23 24 24 25 26 26 27 28 28 29 29 30 30 31 31 31 31 32
33 31 30 29 27 26 24 23 21 19 18 16 15 14 12 12 11 10 9 9 9 8 9 9 9 10 11 12 12 13 13 14 14 15 15 15 15 15 15 15 16 16 17 17 18 19 20 21 22 22 23 24 24 25 26 26 27 27 28 28 29 29 30 30 31 31 32 32 32
32 31 29 28 26 25 23 22 21 19 18 17 15 14 13 12 11 11 10 9 9 9 9 9 10 10 11 12 13 13 14 14 14 15 15 15 15 15 15 16 16 16 17 18 18 19 20 21 22 23 24 24 25 26 26 27 27 28 28 29 29 29 30 30 31 31 32 32 32
32 30 28 27 25 24 23 21 20 19 18 17 16 15 14 13 12 11 10 10 9 9 9 10 10 11 12 13 14 14 14 14 15 15 15 15 15 15 15 16 16 17 17 18 19 20 21 22 23 24 24 25 26 26 27 27 27 28 28 29 29 30 30 30 31 31 32 32 32
31 29 27 26 25 23 22 21 20 19 18 17 16 16 15 14 13 12 11 10 9 9 9 10 10 11 13 13 14 14 14 15 15 15 15 15 15 15 16 16 17 17 18 19 20 21 22 22 23 24 25 25 26 27 27 27 28 28 29 29 29 30 30 31 31 31 31 32 32
29 28 26 25 24 23 22 21 20 19 19 18 17 16 15 14 13 12 11 10 9 9 9 10 11 12 13 14 14 14 14 15 15 15 15 15 15 15 16 16 17 18 18 19 20 21 22 23 24 25 25 26 27 27 27 28 28 29 29 29 30 30 31 31 31 31 31 31 31
28 27 26 25 23 22 21 21 20 20 19 18 17 16 15 14 13 12 11 10 9 9 9 10 11 12 13 14 14 14 15 15 15 15 15 15 15 16 16 17 17 18 19 20 21 22 23 24 24 25 26 27 27 28 28 28 29 29 30 30 31 31 31 31 31 31 31 31 31
28 26 25 24 23 22 21 21 20 20 19 19 18 16 15 14 13 12 10 9 9 9 9 10 12 12 13 14 14 14 14 15 15 15 15 15 16 16 17 17 18 18 19 20 21 22 23 24 25 26 27 27 28 28 28 29 29 30 30 31 31 32 32 32 32 31 31 31 30
27 26 24 23 22 22 21 21 20 20 19 19 17 16 15 14 12 11 9 8 8 9 10 11 12 13 13 13 14 14 14 15 15 15 15 16 16 16 17 18 18 19 20 21 22 23 24 25 26 27 27 28 28 28 29 29 30 30 31 31 32 33 33 32 32 31 30 30 28
26 25 24 23 22 22 21 21 20 20 19 18 17 16 14 13 11 9 8 8 8 9 10 11 12 13 13 13 13 14 14 14 15 15 15 16 16 17 18 18 19 20 20 21 22 23 24 25 26 27 27 28 28 29 29 29 30 31 31 32 32 33 33 33 32 31 30 28 27
24 23 23 22 22 21 21 21 20 19 18 17 16 15 13 12 10 8 7 7 8 9 11 11 12 12 13 13 14 14 14 14 14 15 15 16 17 17 18 19 20 20 21 22 23 23 24 25 25 26 27 28 28 29 29 30 30 31 32 32 33 33 33 33 32 31 29 27 24
23 23 22 22 21 21 21 20 20 19 18 17 15 14 12 10 9 8 7 8 9 10 11 11 12 12 13 14 14 14 14 14 14 15 15 16 17 18 19 19 20 21 22 22 23 24 24 25 25 26 27 27 28 29 30 30 31 31 32 32 32 32 32 32 31 30 28 25 22
22 22 22 21 21 21 20 20 19 18 17 15 14 12 11 9 8 7 7 8 9 10 11 11 12 13 14 14 13 13 13 14 14 15 16 17 17 18 19 20 21 22 22 23 23 24 25 25 25 26 26 27 28 29 30 30 31 31 32 32 32 32 31 31 30 28 26 23 20
22 22 22 21 21 21 20 19 18 17 16 14 13 11 10 8 7 7 7 8 9 10 11 12 13 14 14 13 13 13 13 14 15 15 16 17 18 19 20 21 21 22 23 23 24 24 25 25 26 26 27 27 28 29 30 30 31 31 31 31 31 31 30 30 28 25 23 21 19
22 22 21 21 21 20 19 18 17 16 14 13 12 10 9 8 7 7 7 8 9 10 11 13 14 14 13 12 12 13 14 14 15 16 17 18 19 20 21 21 22 23 23 24 24 25 25 26 26 27 27 27 28 29 30 30 31 31 31 31 31 30 29 28 26 23 21 19 18
21 21 21 20 20 19 18 17 16 15 13 12 10 9 8 7 7 7 7 8 10 11 13 14 13 12 11 11 12 13 14 15 16 16 17 18 19 20 21 22 23 23 24 24 24 25 25 26 26 27 27 28 28 29 30 30 30 30 30 30 30 29 28 26 23 21 19 18 18
21 20 20 20 19 18 17 16 15 13 12 11 9 8 7 7 7 7 8 10 11 13 13 13 11 10 11 12 13 14 15 15 16 17 18 19 20 21 22 23 23 24 24 25 25 25 26 26 27 27 28 28 29 29 30 30 30 30 30 30 29 28 26 24 21 19 18 17 18
20 20 19 19 18 17 16 14 13 12 11 10 9 8 7 7 7 8 10 12 13 13 12 10 9 10 11 13 14 14 15 16 17 18 19 20 20 21 22 23 24 24 25 25 25 26 26 27 27 28 28 29 29 29 30 30 30 30 29 29 28 27 25 22 20 18 18 18 19
20 19 18 18 17 16 14 13 12 11 10 9 8 7 7 7 8 10 12 13 13 11 9 8 9 11 12 13 14 15 16 17 18 19 20 20 21 22 22 23 24 24 25 25 26 26 27 27 28 28 29 29 29 30 30 30 30 29 29 28 27 26 23 21 20 19 19 19 20
19 18 17 17 15 14 13 12 11 10 9 8 7 7 7 8 10 11 12 12 10 8 8 8 10 11 12 13 14 15 16 17 19 20 20 21 22 22 23 23 24 25 25 26 26 27 27 28 28 29 29 29 30 30 30 29 29 28 28 27 26 25 23 21 20 20 20 20 20
18 17 16 15 15 13 13 12 10 9 8 6 6 7 8 10 11 12 11 9 7 7 8 9 11 12 12 13 15 16 17 18 19 20 21 22 22 23 23 24 24 25 26 26 27 27 28 28 29 29 29 30 30 30 29 29 28 27 26 26 25 24 23 22 21 21 20 20 20
16 16 15 14 14 13 12 10 9 7 6 6 7 8 10 11 11 9 8 6 7 8 9 10 11 12 13 14 15 17 18 19 20 21 22 22 23 23 24 24 25 25 26 27 27 28 28 28 29 29 29 30 30 29 29 27 26 25 24 24 24 24 23 22 22 21 21 21 22
16 15 14 13 13 11 10 8 7 6 6 8 9 10 10 9 8 6 6 6 7 8 9 10 11 12 13 15 16 17 19 20 20 21 22 23 23 24 24 25 25 26 27 27 28 28 29 29 29 29 29 29 29 28 27 26 24 23 22 23 24 23 23 22 22 22 22 23 25
15 14 13 12 11 10 8 7 6 7 8 8 9 8 7 6 5 5 5 7 8 9 10 11 12 13 14 15 17 18 19 20 21 22 22 23 24 24 25 25 26 27 27 28 28 29 29 29 29 29 29 28 28 27 25 24 23 22 22 23 23 23 23 22 22 23 25 27 29
15 14 12 11 9 8 7 6 6 7 7 7 6 5 5 4 5 5 6 7 8 9 10 11 13 14 15 16 17 18 19 20 21 22 22 23 24 25 25 26 27 27 28 28 29 29 29 29 29 29 28 27 26 25 24 23 22 22 22 22 22 23 23 23 23 25 28 31 31
14 12 11 9 8 7 6 6 6 6 5 5 4 4 4 4 5 6 7 8 9 10 11 12 13 15 16 17 18 18 19 20 21 22 23 23 24 25 26 27 27 28 28 29 29 29 29 29 29 28 27 26 25 23 22 22 22 21 21 22 22 22 23 24 26 29 31 31 29
Wind_Direction
173 174 177 181 182 181 180 181 182 182 182 183 183 184 185 186 185 182 180 179 180 183 185 187 190 197 248 349 351 348 346 344 342 341 341 342 343 345 346 347 347 347 347 346 344 343 341 340 339 337 336 336 336 335 336 335 335 335 334 333 333 332 331 330 329 328 327 326 325
173 177 181 183 182 180 179 179 179 180 180 182 184 185 186 186 185 182 180 180 182 185 188 190 192 203 298 342 347 346 343 340 339 339 340 341 343 344 346 346 346 346 346 345 343 342 340 339 337 336 335 335 335 335 335 334 334 333 333 332 331 330 329 328 327 326 326 325 324
176 181 184 183 181 179 178 178 178 179 180 181 183 185 184 183 182 181 180 182 184 187 189 191 197 223 314 336 341 341 339 338 337 337 339 341 342 344 345 345 345 345 344 344 342 340 339 337 336 335 334 334 334 333 333 333 332 332 331 330 329 328 328 327 326 325 324 324 323
179 183 183 181 179 179 179 179 179 180 181 182 183 183 182 180 179 180 182 185 186 188 190 195 208 261 319 331 334 335 335 335 335 336 338 339 341 342 343 344 344 344 343 342 340 338 337 336 335 334 333 333 332 332 332 331 331 330 330 329 328 327 326 325 324 324 323 323 322
181 182 181 179 179 179 180 181 182 183 184 184 184 183 180 179 179 181 184 186 186 188 193 203 226 283 319 328 329 330 331 332 334 335 337 338 340 341 342 342 342 341 340 339 338 336 335 334 333 332 332 331 331 330 330 330 330 329 328 328 327 326 325 324 323 323 323 322 322
179 179 179 178 179 179 181 183 184 186 186 187 186 183 181 179 180 182 184 185 188 193 201 216 253 295 314 322 325 327 328 330 332 334 336 337 338 339 340 340 340 339 338 337 336 334 333 332 331 331 330 330 329 329 329 329 329 328 328 327 326 325 324 324 323 323 322 322 322
176 176 177 178 179 180 182 184 186 187 188 187 186 183 181 180 182 184 186 189 193 200 210 234 271 298 310 317 321 324 326 329 331 333 334 335 337 338 338 338 337 337 336 335 334 332 331 330 330 329 329 328 328 328 328 328 328 328 327 326 325 325 324 323 323 322 322 323 322
174 175 177 177 179 181 184 185 187 188 187 186 183 181 180 181 184 186 190 194 198 207 224 253 279 297 307 314 318 322 325 327 329 331 332 334 335 336 337 336 335 334 333 332 331 330 329 329 328 328 328 328 328 327 327 327 327 327 326 325 325 324 324 323 323 323 322 322 322
173 175 176 177 179 182 184 186 188 188 187 184 180 179 180 183 187 190 194 197 205 219 241 264 283 297 306 312 316 320 323 325 327 329 331 332 334 335 334 334 333 332 331 330 329 328 328 327 327 327 327 327 327 327 327 327 327 326 326 325 325 324 324 323 323 322 322 322 321
172 174 176 177 180 182 184 185 186 186 185 183 180 180 182 186 190 194 199 205 217 235 253 270 286 298 304 310 314 318 321 323 325 328 329 331 332 332 332 331 330 329 328 327 327 326 326 326 326 326 326 326 326 326 326 326 326 326 325 325 324 324 324 323 322 322 321 321 321
172 174 176 178 180 182 184 184 184 184 184 183 182 183 186 190 194 199 207 217 230 244 258 273 287 296 303 308 312 316 319 322 324 327 328 330 330 330 329 328 327 326 326 325 325 325 325 325 325 326 326 326 326 326 326 326 326 325 325 325 324 324 323 323 322 321 321 320 320
173 175 177 179 181 182 183 184 184 184 184 184 185 187 190 194 200 207 216 226 238 250 263 277 287 295 301 306 310 314 317 320 323 326 327 328 328 327 326 326 325 324 324 324 324 324 324 324 325 325 326 326 326 326 326 326 326 325 325 324 324 324 323 322 322 321 320 320 320
174 176 178 180 181 183 184 185 185 185 185 186 188 191 195 200 207 214 223 233 244 255 267 278 287 294 299 304 308 312 316 320 323 325 326 326 326 325 324 324 323 323 323 323 323 323 323 324 324 325 326 326 326 326 326 326 326 325 325 324 324 323 322 322 321 321 320 320 319
176 178 179 181 182 183 185 187 187 188 188 189 192 196 201 206 213 221 229 238 248 259 269 280 287 293 298 302 307 311 315 319 322 324 325 325 324 323 323 322 322 322 322 322 322 322 323 324 325 325 326 326 326 326 326 326 326 325 325 324 323 322 322 321 321 321 320 320 320
177 179 180 182 183 184 187 189 190 191 192 193 197 202 207 213 219 226 234 242 252 262 272 281 287 293 298 301 305 310 315 318 322 324 324 323 323 322 322 321 321 321 321 321 322 323 324 324 325 326 326 326 326 326 326 326 326 325 324 323 323 322 322 321 321 321 321 321 320
178 180 181 183 184 186 189 191 193 195 196 198 203 207 213 218 225 231 237 246 255 265 274 281 287 293 298 302 305 310 314 318 321 323 323 322 321 320 320 320 320 321 321 322 323 323 324 325 326 326 326 327 326 326 326 325 325 324 323 322 322 321 321 321 321 322 321 321 321
179 181 182 184 186 188 191 194 196 198 201 203 208 212 217 223 228 233 240 247 257 266 275 282 288 294 299 304 306 310 314 318 321 322 321 320 319 319 319 319 320 320 321 322 323 324 325 326 326 326 327 326 326 326 325 325 324 323 322 321 321 321 321 322 322 322 322 322 322
181 182 184 185 188 191 194 197 199 201 204 208 212 216 221 225 230 235 241 249 257 266 276 283 290 296 301 305 307 310 314 318 320 320 319 318 317 317 318 318 319 320 322 323 324 325 326 326 326 326 326 326 325 325 324 324 323 322 321 321 321 321 322 322 323 323 323 322 322
182 183 185 187 190 193 196 199 201 204 207 211 215 219 223 226 231 236 243 250 258 267 276 285 293 299 304 306 309 310 313 317 319 318 317 316 316 317 317 319 320 322 323 324 325 326 326 326 326 325 325 325 324 324 323 323 322 321 321 321 322 322 323 323 323 323 323 322 321
183 185 186 189 192 195 198 200 203 206 209 213 217 220 223 227 232 237 243 250 259 269 279 288 296 302 306 308 310 312 314 316 317 316 315 315 316 317 318 320 321 323 324 325 326 326 326 326 325 325 324 324 323 323 322 322 321 321 321 322 322 323 323 323 323 323 323 322 321
184 186 188 191 194 197 200 202 205 208 211 215 217 220 224 227 232 237 243 251 262 272 283 292 299 305 308 310 311 313 314 315 315 314 313 314 316 317 319 320 322 323 325 326 326 326 326 325 324 324 323 323 323 322 322 322 322 322 322 322 323 323 323 323 323 323 323 322 321
185 187 190 192 195 199 201 204 207 209 212 215 218 221 224 228 232 237 244 254 265 276 288 296 303 308 310 311 312 313 314 314 313 313 313 314 316 318 320 321 323 324 325 326 326 326 325 325 324 323 323 323 322 322 322 322 322 322 323 323 323 323 323 323 323 323 323 322 321
186 188 191 194 197 201 204 206 208 210 213 215 218 221 224 228 233 239 247 257 270 282 293 301 307 310 311 312 313 313 313 313 312 312 314 315 317 319 320 322 324 325 326 326 326 326 325 325 324 323 323 323 323 323 323 323 323 323 323 323 323 323 323 323 323 323 323 322 321
187 189 192 196 199 202 205 207 209 211 213 215 218 221 224 229 234 241 251 263 276 289 299 306 310 312 312 313 313 314 313 312 311 312 315 317 319 320 321 322 324 325 326 326 326 326 326 325 324 324 323 323 323 323 323 323 323 324 323 323 323 323 323 323 323 324 323 322 320
189 192 195 198 201 204 207 208 209 211 213 215 218 221 225 229 235 244 256 271 285 297 305 310 312 313 313 313 313 313 312 311 311 313 315 317 319 320 321 323 324 325 326 327 327 326 326 325 325 324 323 323 323 323 324 324 324 324 323 323 323 322 322 323 324 324 323 322 320
190 194 197 200 203 205 206 208 209 211 213 215 218 221 225 230 237 248 264 281 294 303 308 312 313 313 313 313 313 312 311 310 311 313 316 317 319 320 321 323 325 326 326 327 327 326 326 325 324 324 323 323 323 324 324 323 323 323 323 323 322 322 322 323 324 324 323 322 319
192 196 199 202 204 205 206 207 209 210 213 215 218 221 225 232 242 255 273 289 300 307 311 313 313 313 313 313 312 311 310 310 312 314 316 317 318 320 322 323 325 326 326 327 326 326 325 324 324 324 324 324 323 323 323 323 323 323 323 322 322 321 321 322 323 324 323 321 319
194 198 200 202 203 204 205 207 208 209 212 214 218 222 229 237 248 264 282 296 304 309 312 313 313 314 315 315 313 311 309 310 312 314 316 318 319 321 323 324 325 326 326 326 326 325 325 324 324 324 324 324 323 323 323 323 323 323 322 322 321 321 321 323 324 324 322 320 317
196 199 200 201 202 203 204 205 207 209 212 215 219 225 232 242 255 272 287 299 305 308 310 311 313 315 317 316 312 309 309 311 313 315 317 319 320 322 324 325 325 326 326 326 326 325 325 325 325 325 325 324 323 323 322 322 323 322 322 321 320 320 321 323 324 324 322 319 316
197 199 200 201 201 202 204 205 207 209 213 217 221 228 236 248 262 277 290 299 302 305 307 311 315 318 317 313 308 307 309 311 314 316 318 320 322 323 324 325 325 325 326 326 326 325 325 325 325 325 325 324 323 322 322 322 322 322 321 320 319 320 322 325 325 324 322 319 316
196 197 199 200 201 202 203 205 207 210 214 219 224 231 240 252 266 279 290 296 300 304 308 313 319 319 313 307 306 308 310 312 315 317 319 321 323 324 325 325 325 325 326 326 326 326 326 326 325 325 325 324 323 322 322 322 322 321 320 319 319 321 324 327 327 325 322 320 317
195 196 198 200 201 202 204 206 208 211 215 220 226 234 244 256 270 283 292 297 300 305 311 318 319 313 306 305 307 309 311 314 316 318 321 322 324 325 325 325 325 325 325 326 326 326 326 326 325 325 324 324 323 322 322 322 321 320 319 319 320 323 327 329 329 327 324 321 318
194 196 198 199 201 202 204 206 209 212 216 222 228 237 248 262 278 290 296 298 302 309 315 316 310 304 303 306 308 311 313 315 318 320 322 324 325 325 325 325 325 325 326 326 327 327 326 326 325 325 324 323 323 322 322 322 321 320 319 319 322 325 329 331 330 328 325 322 319
194 195 197 199 201 202 204 207 210 213 218 224 233 244 257 273 285 292 296 300 306 313 314 306 300 300 303 306 309 312 315 317 319 321 323 324 325 325 326 326 325 326 326 327 327 327 326 326 325 325 324 324 323 323 322 322 321 320 320 321 324 328 331 333 332 329 325 322 318
194 195 197 198 200 203 205 208 211 215 221 229 242 257 272 283 289 294 298 304 311 311 303 296 297 301 304 308 311 314 317 319 321 322 323 324 325 326 326 326 326 326 326 326 326 326 326 326 326 325 325 324 323 323 323 322 321 321 321 322 326 329 332 333 331 328 325 320 316
194 196 197 199 200 203 205 209 213 218 227 240 258 272 282 289 293 297 303 309 308 299 293 296 300 304 308 311 314 316 318 320 322 323 324 324 325 326 326 326 326 326 326 326 326 326 326 326 326 326 325 325 324 324 324 323 322 322 322 323 326 330 332 332 331 327 323 318 314
193 195 198 200 201 203 206 210 215 224 239 258 272 281 287 293 299 304 306 304 297 293 295 300 304 308 311 314 316 318 320 321 323 324 324 325 325 326 326 326 326 326 326 326 326 326 326 326 326 326 326 326 325 325 325 324 323 322 322 323 325 329 331 331 329 325 320 315 313
191 194 197 200 202 204 207 212 222 238 258 270 279 286 292 299 305 305 298 291 291 294 298 303 307 310 313 316 318 320 322 323 324 325 325 326 326 326 327 327 326 326 326 326 326 326 326 327 327 327 327 327 327 326 326 325 323 321 320 322 325 328 330 329 326 321 316 313 313
190 192 195 198 201 204 210 221 238 256 268 278 286 293 299 303 300 293 287 288 291 296 301 306 309 313 316 318 320 322 323 324 325 325 326 326 326 327 327 326 326 326 326 326 326 326 327 327 327 327 328 327 327 327 326 325 323 321 320 322 325 327 327 326 321 316 313 312 312
189 191 193 197 203 211 223 239 255 267 276 285 292 296 295 291 285 283 285 289 294 299 304 309 312 315 318 320 322 323 324 325 325 326 327 327 327 327 326 326 326 326 326 326 326 326 327 327 328 328 329 329 328 327 326 324 323 321 322 324 325 325 324 321 316 312 311 311 313
188 190 194 200 210 222 237 251 264 275 283 290 289 286 281 281 280 283 288 294 299 305 309 313 315 317 319 321 322 324 324 325 326 326 326 327 327 326 326 326 326 325 325 325 326 326 327 327 328 329 330 330 329 328 326 325 324 322 322 324 325 324 320 316 312 311 311 313 318
Height
1475 1476 1478 1480 1481 1483 1485 1486 1488 1490 1491 1493 1494 1495 1496 1497 1498 1499 1500 1501 1502 1503 1503 1504 1504 1504 1504 1504 1504 1504 1504 1504 1503 1503 1503 1502 1502 1501 1501 1500 1500 1500 1499 1499 1499 1498 1498 1498 1497 1497 1497 1496 1496 1495 1495 1494 1494 1493 1492 1491 1491 1490 1489 1489 1488 1487 1486 1485 1484
1474 1476 1478 1480 1481 1483 1485 1486 1488 1490 1491 1493 1494 1495 1496 1497 1498 1499 1500 1500 1501 1502 1503 1503 1503 1503 1503 1503 1503 1503 1503 1503 1503 1502 1502 1502 1501 1500 1500 1500 1499 1499 1499 1498 1498 1498 1497 1497 1497 1496 1496 1495 1495 1495 1494 1494 1493 1492 1491 1490 1490 1489 1488 1487 1487 1486 1485 1484 1483
1474 1476 1478 1479 1481 1483 1485 1486 1488 1489 1490 1492 1493 1494 1495 1496 1497 1498 1499 1500 1500 1501 1502 1502 1502 1502 1502 1502 1502 1502 1502 1502 1502 1502 1501 1501 1500 1500 1499 1499 1499 1498 1498 1498 1497 1497 1497 1496 1496 1496 1495 1495 1494 1494 1493 1493 1492 1491 1490 1490 1489 1488 1487 1486 1485 1485 1484 1483 1482
1474 1475 1477 1479 1481 1483 1484 1486 1487 1488 1490 1491 1492 1493 1495 1495 1496 1497 1498 1499 1500 1500 1501 1501 1501 1501 1501 1501 1501 1501 1501 1501 1501 1501 1500 1500 1500 1499 1499 1498 1498 1497 1497 1497 1497 1496 1496 1496 1495 1495 1495 1494 1494 1493 1492 1492 1491 1490 1490 1489 1488 1487 1486 1485 1485 1484 1483 1482 1481
1474 1475 1477 1479 1481 1483 1485 1485 1487 1488 1489 1490 1491 1492 1494 1495 1495 1496 1497 1498 1499 1499 1500 1500 1500 1500 1500 1500 1501 1501 1501 1501 1500 1500 1500 1500 1499 1499 1498 1498 1497 1497 1496 1496 1496 1496 1495 1495 1495 1494 1494 1493 1493 1492 1491 1491 1490 1489 1489 1488 1487 1486 1485 1484 1483 1482 1481 1480 1479
1473 1475 1477 1479 1481 1483 1484 1485 1486 1487 1489 1490 1491 1492 1493 1494 1495 1496 1497 1497 1498 1499 1499 1499 1499 1500 1500 1500 1500 1500 1500 1500 1500 1500 1499 1499 1498 1498 1497 1497 1496 1496 1496 1495 1495 1495 1495 1494 1494 1493 1493 1492 1492 1491 1490 1490 1489 1488 1487 1486 1485 1485 1484 1483 1482 1481 1480 1479 1478
1473 1475 1477 1479 1481 1482 1484 1485 1486 1487 1488 1489 1490 1491 1492 1493 1494 1495 1496 1497 1497 1498 1498 1498 1499 1499 1499 1499 1499 1499 1499 1499 1499 1499 1498 1498 1498 1497 1497 1496 1496 1495 1495 1495 1495 1494 1494 1494 1493 1492 1492 1491 1490 1490 1490 1489 1488 1487 1486 1485 1485 1483 1482 1481 1480 1479 1478 1477 1476
1473 1475 1477 1479 1480 1482 1483 1484 1485 1486 1488 1489 1490 1491 1492 1493 1494 1495 1495 1496 1496 1497 1497 1498 1498 1498 1498 1499 1499 1499 1499 1498 1498 1498 1498 1497 1497 1496 1496 1495 1495 1495 1495 1494 1494 1494 1493 1493 1492 1492 1491 1490 1490 1489 1488 1488 1487 1486 1485 1484 1483 1482 1481 1480 1479 1477 1476 1475 1475
1473 1475 1477 1479 1480 1481 1483 1484 1485 1486 1487 1489 1490 1490 1491 1492 1493 1494 1495 1495 1496 1496 1497 1497 1497 1497 1498 1498 1498 1498 1498 1498 1498 1497 1497 1496 1496 1495 1495 1495 1495 1494 1494 1494 1493 1493 1492 1492 1491 1490 1490 1489 1489 1488 1487 1486 1485 1485 1484 1483 1482 1481 1480 1479 1477 1476 1475 1474 1473
1472 1475 1476 1478 1480 1481 1482 1484 1485 1486 1487 1488 1489 1490 1491 1492 1492 1493 1494 1495 1495 1495 1496 1496 1496 1497 1497 1497 1497 1497 1497 1497 1497 1496 1496 1496 1495 1495 1495 1494 1494 1494 1493 1493 1492 1492 1491 1491 1490 1490 1489 1488 1488 1487 1486 1485 1484 1483 1482 1481 1480 1480 1478 1477 1476 1475 1473 1472 1471
1472 1474 1476 1477 1479 1480 1481 1483 1484 1485 1486 1487 1488 1489 1490 1491 1492 1493 1493 1494 1494 1495 1495 1495 1496 1496 1496 1496 1496 1496 1496 1496 1496 1496 1495 1495 1495 1494 1494 1493 1493 1493 1492 1492 1491 1491 1490 1490 1489 1489 1488 1487 1486 1485 1485 1484 1483 1482 1481 1480 1479 1478 1477 1476 1475 1473 1472 1471 1470
1472 1474 1475 1477 1478 1480 1481 1482 1483 1485 1486 1487 1488 1489 1490 1490 1491 1492 1493 1493 1494 1494 1494 1495 1495 1495 1495 1495 1496 1496 1495 1495 1495 1495 1495 1494 1494 1493 1493 1493 1492 1492 1491 1491 1490 1490 1490 1489 1488 1488 1487 1486 1485 1484 1483 1482 1481 1480 1480 1478 1477 1476 1475 1474 1473 1472 1471 1470 1468
1471 1473 1475 1476 1478 1479 1480 1481 1483 1484 1485 1486 1487 1488 1489 1490 1491 1491 1492 1492 1493 1493 1494 1494 1494 1495 1495 1495 1495 1495 1495 1495 1494 1494 1494 1493 1493 1493 1492 1492 1491 1491 1490 1490 1490 1489 1489 1488 1487 1487 1486 1485 1484 1483 1482 1481 1480 1479 1478 1477 1476 1475 1474 1472 1471 1470 1469 1468 1467
1471 1473 1474 1475 1477 1479 1480 1481 1482 1484 1485 1486 1487 1488 1489 1489 1490 1491 1491 1492 1492 1492 1493 1493 1493 1494 1494 1494 1494 1494 1494 1494 1494 1493 1493 1493 1492 1492 1491 1491 1490 1490 1490 1489 1489 1488 1487 1487 1486 1485 1485 1484 1483 1482 1481 1480 1479 1477 1476 1475 1474 1473 1472 1471 1470 1469 1467 1466 1465
1471 1472 1474 1475 1476 1478 1479 1480 1482 1483 1484 1485 1486 1487 1488 1489 1489 1490 1490 1491 1491 1492 1492 1492 1493 1493 1493 1493 1493 1493 1493 1493 1493 1492 1492 1492 1491 1491 1490 1490 1490 1489 1489 1488 1487 1487 1486 1485 1485 1484 1483 1482 1481 1480 1479 1478 1477 1476 1475 1474 1473 1471 1470 1469 1468 1467 1465 1464 1463
1470 1472 1473 1475 1476 1477 1479 1480 1481 1483 1484 1485 1485 1486 1487 1488 1489 1489 1490 1490 1490 1491 1491 1491 1492 1492 1492 1492 1492 1492 1492 1492 1492 1491 1491 1491 1490 1490 1490 1489 1489 1488 1488 1487 1486 1485 1485 1484 1483 1482 1482 1481 1480 1479 1478 1477 1476 1475 1474 1472 1471 1470 1469 1467 1466 1465 1464 1462 1461
1470 1471 1473 1474 1476 1477 1479 1480 1481 1482 1483 1484 1485 1486 1487 1487 1488 1488 1489 1489 1490 1490 1490 1491 1491 1491 1491 1491 1491 1491 1491 1491 1491 1490 1490 1490 1490 1489 1489 1488 1488 1487 1487 1486 1485 1484 1483 1482 1482 1481 1480 1479 1478 1477 1476 1475 1475 1473 1472 1471 1470 1469 1467 1466 1465 1463 1462 1460 1459
1469 1471 1472 1474 1475 1477 1478 1480 1480 1482 1483 1484 1485 1485 1486 1486 1487 1488 1488 1489 1489 1489 1490 1490 1490 1490 1490 1490 1490 1490 1490 1490 1490 1490 1489 1489 1489 1488 1488 1487 1487 1486 1486 1485 1484 1483 1482 1481 1480 1480 1479 1478 1477 1476 1475 1474 1473 1472 1471 1470 1468 1467 1466 1464 1463 1461 1460 1459 1457
1469 1470 1472 1474 1475 1477 1478 1479 1480 1481 1482 1483 1484 1485 1485 1486 1486 1487 1487 1488 1488 1489 1489 1489 1489 1489 1489 1490 1490 1490 1489 1489 1489 1489 1488 1488 1488 1487 1487 1486 1486 1485 1485 1484 1483 1482 1481 1480 1479 1478 1477 1476 1475 1475 1474 1473 1471 1470 1469 1468 1467 1465 1464 1463 1461 1460 1458 1457 1455
1469 1470 1472 1474 1475 1476 1478 1479 1480 1481 1482 1482 1483 1484 1485 1485 1486 1486 1486 1487 1487 1488 1488 1488 1488 1488 1488 1489 1489 1488 1488 1488 1488 1488 1487 1487 1487 1486 1486 1485 1485 1484 1483 1482 1482 1481 1480 1479 1478 1477 1476 1475 1474 1473 1472 1471 1470 1469 1468 1466 1465 1464 1462 1461 1460 1458 1457 1455 1454
1469 1470 1472 1473 1475 1476 1477 1478 1479 1480 1481 1482 1483 1483 1484 1485 1485 1485 1486 1486 1486 1487 1487 1487 1487 1487 1487 1487 1487 1487 1487 1487 1487 1487 1486 1486 1486 1485 1485 1484 1484 1483 1482 1481 1480 1480 1478 1477 1476 1475 1474 1473 1472 1471 1470 1469 1468 1467 1466 1465 1463 1462 1461 1459 1458 1457 1455 1454 1452
1469 1470 1472 1473 1474 1475 1476 1478 1479 1480 1480 1481 1482 1483 1483 1484 1484 1485 1485 1485 1486 1486 1486 1486 1486 1486 1486 1486 1486 1486 1486 1486 1486 1485 1485 1485 1485 1484 1484 1483 1483 1482 1481 1480 1479 1478 1477 1476 1475 1474 1473 1472 1471 1470 1469 1467 1466 1465 1464 1463 1461 1460 1459 1458 1456 1455 1454 1452 1450
1468 1470 1471 1472 1474 1475 1476 1477 1478 1479 1480 1480 1481 1482 1482 1483 1483 1484 1484 1485 1485 1485 1485 1485 1485 1485 1486 1485 1485 1485 1485 1485 1485 1484 1484 1484 1483 1483 1483 1482 1481 1481 1480 1479 1478 1477 1476 1475 1473 1472 1471 1470 1469 1468 1467 1465 1464 1463 1462 1460 1460 1458 1457 1456 1455 1453 1452 1450 1449
1468 1469 1470 1472 1473 1474 1475 1476 1477 1478 1479 1480 1480 1481 1482 1482 1483 1483 1484 1484 1484 1484 1485 1485 1485 1485 1485 1485 1485 1485 1484 1484 1484 1483 1483 1483 1482 1482 1481 1481 1480 1480 1479 1478 1477 1475 1474 1473 1472 1470 1469 1468 1467 1466 1465 1464 1462 1461 1460 1459 1457 1456 1455 1454 1453 1451 1450 1448 1447
1468 1469 1470 1471 1472 1474 1475 1475 1476 1477 1478 1479 1480 1480 1481 1481 1482 1482 1483 1483 1483 1484 1484 1484 1484 1484 1484 1484 1484 1484 1483 1483 1483 1482 1482 1481 1481 1481 1480 1480 1479 1478 1477 1476 1475 1474 1473 1472 1470 1469 1468 1466 1465 1464 1463 1462 1460 1459 1458 1457 1455 1454 1453 1451 1450 1450 1448 1446 1445
1467 1468 1470 1471 1472 1473 1474 1475 1476 1477 1478 1478 1479 1480 1480 1481 1481 1482 1482 1482 1482 1483 1483 1483 1483 1483 1483 1483 1483 1483 1482 1482 1482 1481 1481 1480 1480 1480 1479 1479 1478 1477 1476 1475 1474 1473 1472 1470 1469 1468 1466 1465 1464 1462 1461 1460 1459 1458 1456 1455 1454 1452 1451 1450 1448 1447 1446 1445 1443
1467 1468 1469 1470 1471 1472 1473 1474 1475 1476 1477 1478 1478 1479 1480 1480 1480 1481 1481 1481 1482 1482 1482 1482 1482 1482 1482 1482 1482 1482 1481 1481 1481 1480 1480 1480 1479 1479 1478 1477 1476 1475 1475 1474 1473 1471 1470 1469 1468 1467 1465 1464 1462 1461 1460 1458 1457 1456 1455 1453 1452 1450 1449 1448 1446 1445 1444 1443 1441
1466 1467 1468 1470 1470 1472 1473 1474 1475 1475 1476 1477 1478 1478 1479 1480 1480 1480 1480 1480 1481 1481 1481 1481 1481 1481 1481 1481 1480 1480 1480 1480 1480 1480 1479 1479 1478 1477 1477 1476 1475 1474 1473 1472 1471 1470 1469 1468 1466 1465 1464 1462 1461 1459 1458 1457 1455 1454 1453 1452 1450 1449 1448 1446 1445 1444 1442 1441 1440
1465 1467 1468 1469 1470 1471 1472 1473 1474 1475 1476 1476 1477 1478 1478 1479 1479 1479 1480 1480 1480 1480 1480 1480 1480 1480 1480 1480 1480 1480 1480 1479 1479 1479 1478 1478 1477 1476 1475 1475 1474 1473 1472 1471 1470 1469 1467 1466 1465 1464 1462 1461 1460 1458 1456 1455 1454 1453 1451 1450 1449 1447 1446 1445 1444 1442 1440 1439 1438
1465 1466 1467 1468 1470 1470 1471 1473 1474 1475 1475 1476 1477 1477 1478 1478 1478 1478 1479 1479 1479 1479 1479 1479 1479 1479 1479 1479 1479 1479 1479 1478 1478 1478 1477 1476 1476 1475 1474 1473 1472 1471 1470 1469 1468 1467 1466 1465 1463 1462 1461 1460 1458 1456 1455 1454 1453 1451 1450 1448 1447 1446 1445 1443 1442 1440 1439 1438 1437
1465 1466 1467 1468 1469 1470 1471 1472 1473 1474 1475 1475 1476 1476 1477 1477 1477 1477 1478 1478 1478 1478 1478 1478 1478 1478 1478 1478 1478 1478 1478 1477 1477 1476 1476 1475 1474 1473 1472 1471 1470 1470 1469 1468 1467 1465 1464 1463 1462 1460 1459 1458 1457 1455 1454 1452 1451 1450 1448 1447 1445 1444 1443 1442 1440 1439 1438 1437 1435
1464 1465 1466 1468 1469 1470 1471 1472 1473 1474 1474 1475 1475 1476 1476 1476 1476 1477 1477 1477 1477 1477 1477 1477 1477 1477 1477 1477 1477 1477 1476 1476 1476 1475 1475 1474 1473 1472 1471 1470 1469 1468 1467 1466 1465 1464 1463 1461 1460 1459 1458 1456 1455 1454 1452 1450 1449 1448 1446 1445 1444 1443 1442 1440 1439 1438 1436 1435 1434
1464 1465 1466 1467 1468 1470 1470 1471 1472 1473 1474 1474 1475 1475 1475 1475 1476 1476 1476 1476 1476 1476 1476 1476 1476 1477 1477 1476 1476 1476 1475 1475 1475 1474 1473 1472 1471 1470 1470 1468 1467 1466 1465 1465 1464 1462 1461 1460 1459 1457 1456 1455 1453 1452 1450 1449 1447 1446 1445 1443 1442 1441 1440 1439 1438 1436 1435 1434 1433
1464 1465 1466 1467 1468 1469 1470 1471 1472 1472 1473 1473 1474 1474 1475 1475 1475 1475 1475 1475 1475 1475 1475 1476 1476 1476 1476 1476 1475 1475 1474 1474 1473 1472 1472 1471 1470 1469 1468 1467 1466 1465 1464 1463 1462 1461 1460 1459 1457 1456 1455 1453 1451 1450 1449 1447 1445 1444 1443 1441 1440 1440 1438 1437 1436 1435 1434 1433 1432
1464 1465 1466 1467 1468 1469 1470 1470 1471 1472 1472 1473 1473 1474 1474 1474 1475 1475 1474 1474 1475 1475 1475 1475 1475 1475 1475 1475 1475 1474 1473 1472 1472 1471 1470 1469 1469 1468 1467 1466 1465 1463 1462 1461 1460 1459 1458 1457 1455 1454 1453 1451 1450 1448 1447 1445 1444 1442 1441 1440 1439 1438 1437 1435 1435 1434 1432 1431 1430
1463 1465 1465 1467 1468 1469 1470 1470 1471 1471 1472 1472 1473 1473 1474 1474 1473 1473 1474 1474 1474 1475 1475 1475 1475 1475 1474 1474 1473 1473 1472 1471 1470 1470 1469 1468 1467 1466 1465 1464 1463 1462 1461 1460 1459 1458 1457 1455 1454 1453 1451 1449 1448 1446 1445 1443 1442 1440 1439 1438 1437 1436 1435 1434 1433 1432 1431 1430 1429
1463 1465 1465 1466 1467 1468 1469 1470 1470 1471 1471 1472 1472 1472 1473 1472 1472 1473 1473 1474 1474 1474 1474 1474 1474 1474 1473 1473 1472 1471 1471 1470 1469 1468 1467 1466 1466 1465 1464 1463 1462 1461 1460 1459 1457 1456 1455 1454 1452 1451 1449 1448 1446 1445 1443 1441 1440 1439 1437 1436 1435 1435 1434 1432 1431 1430 1429 1429 1428
1463 1465 1465 1466 1467 1468 1469 1469 1470 1470 1471 1471 1471 1471 1471 1472 1472 1472 1473 1473 1473 1474 1473 1473 1473 1473 1472 1472 1471 1470 1469 1469 1468 1467 1466 1465 1464 1463 1462 1461 1460 1459 1458 1457 1456 1455 1454 1452 1451 1450 1448 1446 1445 1443 1441 1440 1439 1438 1436 1435 1434 1433 1432 1431 1430 1429 1428 1427 1426
1463 1464 1465 1466 1467 1468 1468 1469 1470 1470 1470 1470 1470 1471 1471 1471 1472 1472 1472 1473 1473 1473 1473 1472 1472 1472 1471 1470 1470 1469 1468 1467 1466 1465 1465 1464 1463 1462 1461 1460 1459 1458 1456 1455 1454 1453 1452 1451 1449 1448 1446 1445 1443 1441 1440 1439 1437 1436 1435 1434 1433 1432 1431 1430 1429 1428 1426 1425 1425
1463 1464 1465 1466 1467 1467 1468 1469 1469 1469 1470 1470 1470 1470 1471 1471 1471 1472 1472 1472 1472 1472 1472 1471 1471 1470 1470 1470 1469 1468 1467 1466 1465 1464 1463 1462 1461 1460 1459 1458 1457 1456 1455 1454 1453 1451 1450 1449 1448 1446 1445 1443 1442 1440 1439 1437 1436 1435 1434 1433 1432 1430 1430 1429 1427 1426 1425 1424 1423
1463 1464 1465 1465 1466 1467 1468 1468 1468 1469 1469 1469 1470 1470 1470 1471 1471 1471 1471 1471 1471 1471 1471 1470 1470 1470 1469 1468 1468 1467 1466 1465 1464 1463 1462 1461 1460 1459 1458 1457 1455 1454 1453 1452 1451 1450 1449 1447 1446 1445 1444 1442 1440 1439 1438 1436 1435 1434 1433 1432 1431 1430 1429 1427 1425 1424 1423 1422 1421